De Queen, AR

1:54 AM CDT on July 27, 2016 (GMT -0500)
Helms Sevier County

Weather History for KDEQ - April, 2013

Change the Weather History Date:

Thursday, April 18, 2013

  Actual Average Record
Temperature  
Mean Temperature 61 °F 62 °F  
Max Temperature 77 °F 75 °F 93 °F (2006)
Min Temperature 45 °F 49 °F 34 °F (1999)
Degree Days  
Heating Degree Days 4 4  
Month to date heating degree days 116 117  
Since 1 July heating degree days 2897 2985  
Cooling Degree Days 0 1  
Month to date cooling degree days 49 18  
Year to date cooling degree days 53 29  
Growing Degree Days 12 (Base 50)    
Moisture  
Dew Point 52 °F    
Average Humidity 77    
Maximum Humidity 96    
Minimum Humidity 58    
Precipitation  
Precipitation 0.45 in 0.13 in 2.10 in (1977)
Month to date precipitation 1.53 2.07  
Year to date precipitation 7.03 13.71  
Snow  
Snow 0.00 in - - ()
Month to date snowfall 0.0  
Since 1 July snowfall 4.5  
Snow Depth 0.00 in    
Sea Level Pressure  
Sea Level Pressure 29.78 in    
Wind  
Wind Speed 12 mph (West)    
Max Wind Speed 24 mph    
Max Gust Speed 34 mph    
Visibility 8 miles    
Events Rain    
T = Trace of Precipitation, MM = Missing Value Source: NWS Daily Summary

Daily Weather History Graph

Daily Weather History Graph

Search for Another Location

Airport or City:

Trip Planner

Search our weather history database for the weather conditions in past years. The results will help you decide how hot, cold, wet, or windy it might be!

Date:

Astronomy

Apr. 18, 2013 Rise Set
Actual Time 6:42 AM CDT 7:51 PM CDT
Civil Twilight 6:16 AM CDT 8:17 PM CDT
Nautical Twilight 5:45 AM CDT 8:48 PM CDT
Astronomical Twilight 5:14 AM CDT 9:20 PM CDT
Moon 12:58 PM CDT (4/18) 2:03 AM CDT (4/18)
Length of Visible Light 14h 00m
Length of Day
13h 08m
First Quarter, 52% of the Moon is Illuminated
Apr 18
First Quarter
Apr 25
Full
May 2
Last Quarter
May 9
New
May 17
First Quarter

Hourly Weather History & Observations

Time (CDT) Temp. Windchill Dew Point Humidity Pressure Visibility Wind Dir Wind Speed Gust Speed Precip Events Conditions
12:53 AM 77.0 °F - 64.9 °F 66% 29.68 in 9.0 mi South 16.1 mph 26.5 mph N/A   Overcast
1:53 AM 75.9 °F - 64.9 °F 69% 29.67 in 10.0 mi South 15.0 mph 20.7 mph N/A   Mostly Cloudy
2:53 AM 75.9 °F - 64.9 °F 69% 29.62 in 10.0 mi South 16.1 mph 23.0 mph N/A   Mostly Cloudy
3:53 AM 75.9 °F - 64.9 °F 69% 29.58 in 10.0 mi South 11.5 mph 25.3 mph N/A   Overcast
4:53 AM 75.9 °F - 64.9 °F 69% 29.59 in 10.0 mi South 8.1 mph 20.7 mph N/A   Overcast
5:53 AM 75.9 °F - 64.9 °F 69% 29.59 in 10.0 mi South 9.2 mph 18.4 mph N/A   Overcast
6:53 AM 75.9 °F - 64.9 °F 69% 29.66 in 10.0 mi SW 11.5 mph 19.6 mph N/A   Overcast
7:53 AM 73.0 °F - 66.9 °F 81% 29.68 in 6.0 mi WSW 9.2 mph - 0.00 in Rain Light Rain
8:09 AM 71.1 °F - 66.0 °F 84% 29.72 in 0.8 mi WSW 24.2 mph 33.4 mph 0.13 in Rain Heavy Rain
8:19 AM 68.0 °F - 64.9 °F 90% 29.72 in 2.5 mi West 8.1 mph - 0.16 in Rain Light Rain
8:53 AM 66.9 °F - 64.9 °F 93% 29.70 in 9.0 mi West 4.6 mph - 0.16 in Rain Light Rain
9:22 AM 66.9 °F - 64.9 °F 93% 29.71 in 2.0 mi West 10.4 mph - 0.02 in Rain Rain
9:31 AM 64.9 °F - 63.0 °F 93% 29.72 in 2.0 mi West 11.5 mph - 0.08 in Rain Heavy Rain
9:38 AM 64.0 °F - 62.1 °F 93% 29.72 in 1.8 mi West 11.5 mph - 0.11 in Rain Heavy Rain
9:46 AM 64.0 °F - 62.1 °F 93% 29.71 in 2.5 mi West 6.9 mph - 0.13 in Rain Rain
9:53 AM 64.0 °F - 61.0 °F 90% 29.71 in 4.0 mi West 15.0 mph - 0.13 in Rain Light Rain
10:05 AM 62.1 °F - 60.1 °F 93% 29.74 in 5.0 mi West 20.7 mph 28.8 mph 0.00 in Rain Light Rain
10:41 AM 55.9 °F - 54.0 °F 93% 29.75 in 4.0 mi WNW 13.8 mph 23.0 mph 0.08 in Rain Rain
10:53 AM 55.0 °F - 54.0 °F 96% 29.73 in 5.0 mi WNW 10.4 mph - 0.10 in Rain Rain
11:53 AM 52.0 °F - 50.0 °F 93% 29.77 in 6.0 mi West 11.5 mph - 0.04 in Rain Light Rain
11:57 AM 51.1 °F - 48.9 °F 92% 29.78 in 5.0 mi West 11.5 mph - 0.01 in Rain Rain
12:13 PM 51.1 °F - 48.9 °F 92% 29.75 in 6.0 mi WNW 10.4 mph - 0.01 in Rain Light Rain
12:53 PM 50.0 °F - 46.0 °F 86% 29.81 in 10.0 mi WNW 13.8 mph 26.5 mph 0.01 in   Overcast
1:53 PM 50.0 °F - 46.0 °F 86% 29.83 in 9.0 mi WNW 11.5 mph 18.4 mph 0.00 in Rain Light Rain
2:09 PM 50.0 °F - 46.0 °F 86% 29.82 in 10.0 mi NW 13.8 mph 20.7 mph 0.00 in   Overcast
2:46 PM 48.9 °F - 44.1 °F 83% 29.88 in 10.0 mi NW 12.7 mph - 0.00 in Rain Light Rain
2:53 PM 48.0 °F - 44.1 °F 86% 29.83 in 8.0 mi NNW 16.1 mph 21.9 mph 0.01 in Rain Rain
3:00 PM 48.0 °F - 44.1 °F 86% 29.84 in 7.0 mi NNW 11.5 mph 21.9 mph 0.00 in Rain Light Rain
3:53 PM 48.9 °F - 42.1 °F 77% 29.84 in 10.0 mi NW 12.7 mph 20.7 mph 0.00 in   Overcast
4:53 PM 48.9 °F - 41.0 °F 74% 29.87 in 10.0 mi NNW 11.5 mph - N/A   Overcast
5:43 PM 50.0 °F - 41.0 °F 71% 29.88 in 10.0 mi NW 15.0 mph - N/A   Overcast
5:53 PM 51.1 °F - 41.0 °F 68% 29.86 in 10.0 mi NNW 12.7 mph 19.6 mph N/A   Overcast
6:53 PM 50.0 °F - 37.0 °F 61% 29.90 in 10.0 mi NW 17.3 mph 27.6 mph N/A   Scattered Clouds
7:53 PM 48.0 °F - 37.0 °F 66% 29.94 in 10.0 mi NW 6.9 mph - N/A   Overcast
8:53 PM 46.9 °F - 35.1 °F 63% 29.98 in 10.0 mi NW 10.4 mph 19.6 mph N/A   Overcast
9:53 PM 46.9 °F - 32.0 °F 56% 30.02 in 10.0 mi NNW 17.3 mph 24.2 mph N/A   Overcast
10:53 PM 46.0 °F 41.4 °F 33.1 °F 61% 30.04 in 10.0 mi NW 9.2 mph 18.4 mph N/A   Overcast
11:53 PM 46.0 °F 42.5 °F 32.0 °F 58% 30.05 in 10.0 mi WNW 6.9 mph - N/A   Overcast